| time (UTC) | temp F | wind direction | speed MPH | gust MPH | rain 1hr in | rain 24hr in | rain mn in | humidity % | barometer mb |
| 20260503040026 | 41 | 336 | 0.0 | 1.0 | 0.00 | 0.00 | 0.00 | 89 | 1018.6 |
| 20260503035537 | 41 | 340 | 0.0 | 1.0 | 0.00 | 0.00 | 0.00 | 89 | 1018.7 |
| 20260503035017 | 41 | 334 | 0.0 | 1.0 | 0.00 | 0.00 | 0.00 | 89 | 1018.6 |
| 20260503034529 | 41 | 0.0 | 0.0 | 0.00 | 0.00 | 0.00 | 89 | 1018.6 | |
| 20260503034033 | 41 | 346 | 0.0 | 1.0 | 0.00 | 0.00 | 0.00 | 89 | 1018.6 |
| 20260503033537 | 41 | 322 | 0.0 | 1.0 | 0.00 | 0.00 | 0.00 | 88 | 1018.6 |
| 20260503033018 | 41 | 0.0 | 0.0 | 0.00 | 0.00 | 0.00 | 88 | 1018.7 | |
| 20260503032530 | 41 | 335 | 0.0 | 1.0 | 0.00 | 0.00 | 0.00 | 89 | 1018.5 |
| 20260503032041 | 41 | 338 | 0.0 | 1.0 | 0.00 | 0.00 | 0.00 | 89 | 1018.7 |
| 20260503031522 | 41 | 0.0 | 0.0 | 0.00 | 0.00 | 0.00 | 89 | 1018.6 | |
| 20260503031033 | 41 | 0.0 | 0.0 | 0.00 | 0.00 | 0.00 | 89 | 1018.6 | |
| 20260503030545 | 42 | 330 | 0.0 | 1.0 | 0.00 | 0.00 | 0.00 | 89 | 1018.7 |
| 20260503030025 | 42 | 0.0 | 0.0 | 0.00 | 0.00 | 0.00 | 88 | 1018.7 | |
| 20260503025537 | 42 | 0.0 | 0.0 | 0.00 | 0.00 | 0.00 | 88 | 1018.7 | |
| 20260503025017 | 42 | 0.0 | 0.0 | 0.00 | 0.00 | 0.00 | 88 | 1018.7 | |
| 20260503024529 | 42 | 320 | 0.0 | 1.0 | 0.00 | 0.00 | 0.00 | 88 | 1018.7 |
| 20260503024041 | 42 | 0.0 | 0.0 | 0.00 | 0.00 | 0.00 | 88 | 1018.7 | |
| 20260503023521 | 42 | 318 | 0.0 | 1.0 | 0.00 | 0.00 | 0.00 | 88 | 1018.7 |
| 20260503023033 | 42 | 325 | 0.0 | 1.0 | 0.00 | 0.00 | 0.00 | 88 | 1018.7 |
| 20260503022545 | 42 | 0.0 | 0.0 | 0.00 | 0.00 | 0.00 | 88 | 1018.7 | |
| 20260503022026 | 42 | 0.0 | 0.0 | 0.00 | 0.00 | 0.00 | 87 | 1018.7 | |
| 20260503021538 | 42 | 0.0 | 0.0 | 0.00 | 0.00 | 0.00 | 87 | 1018.7 | |
| 20260503021018 | 42 | 315 | 0.0 | 1.0 | 0.00 | 0.00 | 0.00 | 87 | 1018.7 |
| 20260503020529 | 43 | 0.0 | 0.0 | 0.00 | 0.00 | 0.00 | 86 | 1018.8 | |
| 20260503020041 | 43 | 0.0 | 0.0 | 0.00 | 0.00 | 0.00 | 86 | 1018.9 | |
| 20260503015521 | 43 | 0.0 | 0.0 | 0.00 | 0.00 | 0.00 | 86 | 1018.8 | |
| 20260503015033 | 43 | 316 | 0.0 | 1.0 | 0.00 | 0.00 | 0.00 | 85 | 1018.9 |
| 20260503014545 | 44 | 0.0 | 0.0 | 0.00 | 0.00 | 0.00 | 84 | 1018.8 | |
| 20260503014025 | 45 | 330 | 0.0 | 1.0 | 0.00 | 0.00 | 0.00 | 83 | 1018.8 |
| 20260503013537 | 46 | 333 | 0.0 | 1.0 | 0.00 | 0.00 | 0.00 | 82 | 1018.7 |
| 20260503013017 | 46 | 327 | 0.0 | 1.0 | 0.00 | 0.00 | 0.00 | 81 | 1018.8 |
| 20260503012529 | 47 | 323 | 0.0 | 1.0 | 0.00 | 0.00 | 0.00 | 80 | 1018.8 |
| 20260503012041 | 47 | 311 | 0.0 | 1.0 | 0.00 | 0.00 | 0.00 | 79 | 1018.7 |
| 20260503011521 | 47 | 347 | 0.0 | 1.0 | 0.00 | 0.00 | 0.00 | 79 | 1018.7 |
| 20260503011033 | 48 | 318 | 0.0 | 2.0 | 0.00 | 0.00 | 0.00 | 78 | 1018.8 |
| 20260503010545 | 49 | 344 | 0.0 | 1.0 | 0.00 | 0.00 | 0.00 | 77 | 1018.9 |
| 20260503010025 | 50 | 315 | 0.0 | 1.0 | 0.00 | 0.00 | 0.00 | 75 | 1018.8 |
| 20260503005537 | 50 | 297 | 1.0 | 2.0 | 0.00 | 0.00 | 0.00 | 74 | 1018.8 |
| 20260503005017 | 51 | 321 | 0.0 | 1.0 | 0.00 | 0.00 | 0.00 | 73 | 1018.9 |
| 20260503004529 | 51 | 314 | 1.0 | 2.0 | 0.00 | 0.00 | 0.00 | 72 | 1018.9 |
| 20260503004042 | 51 | 312 | 1.0 | 1.0 | 0.00 | 0.00 | 0.00 | 72 | 1018.8 |
| 20260503003521 | 52 | 316 | 1.0 | 1.0 | 0.00 | 0.00 | 0.00 | 71 | 1018.8 |
| 20260503003034 | 52 | 307 | 1.0 | 1.0 | 0.00 | 0.00 | 0.00 | 70 | 1018.9 |
| 20260503002545 | 52 | 304 | 0.0 | 1.0 | 0.00 | 0.00 | 0.00 | 70 | 1018.8 |
| 20260503002026 | 53 | 266 | 1.0 | 2.0 | 0.00 | 0.00 | 0.00 | 69 | 1018.8 |
| 20260503001537 | 53 | 279 | 1.0 | 3.0 | 0.00 | 0.00 | 0.00 | 69 | 1018.8 |
| 20260503001018 | 53 | 251 | 1.0 | 6.0 | 0.00 | 0.00 | 0.00 | 69 | 1018.8 |
| 20260503000529 | 53 | 293 | 1.0 | 2.0 | 0.00 | 0.00 | 0.00 | 69 | 1018.8 |
| 20260503000041 | 53 | 351 | 1.0 | 2.0 | 0.00 | 0.00 | 0.00 | 68 | 1018.8 |
| 20260502235521 | 53 | 276 | 1.0 | 2.0 | 0.00 | 0.00 | 0.00 | 68 | 1019.0 |
| 20260502235033 | 53 | 257 | 1.0 | 3.0 | 0.00 | 0.00 | 0.00 | 69 | 1018.9 |
| 20260502234545 | 53 | 285 | 1.0 | 3.0 | 0.00 | 0.00 | 0.00 | 69 | 1019.0 |
| 20260502234025 | 53 | 291 | 1.0 | 2.0 | 0.00 | 0.00 | 0.00 | 69 | 1018.9 |
| 20260502233537 | 53 | 324 | 0.0 | 1.0 | 0.00 | 0.00 | 0.00 | 69 | 1019.0 |
| 20260502233017 | 53 | 318 | 0.0 | 1.0 | 0.00 | 0.00 | 0.00 | 69 | 1018.8 |
| 20260502232530 | 53 | 290 | 1.0 | 2.0 | 0.00 | 0.00 | 0.00 | 68 | 1019.0 |
| 20260502232041 | 53 | 324 | 0.0 | 1.0 | 0.00 | 0.00 | 0.00 | 68 | 1019.0 |
| 20260502231522 | 54 | 305 | 0.0 | 1.0 | 0.00 | 0.00 | 0.00 | 67 | 1019.0 |
| 20260502231033 | 54 | 312 | 0.0 | 1.0 | 0.00 | 0.00 | 0.00 | 67 | 1019.0 |
| 20260502230545 | 54 | 350 | 1.0 | 2.0 | 0.00 | 0.00 | 0.00 | 66 | 1019.0 |
| 20260502230025 | 55 | 315 | 1.0 | 1.0 | 0.00 | 0.00 | 0.00 | 66 | 1019.0 |
| 20260502225537 | 55 | 279 | 1.0 | 3.0 | 0.00 | 0.00 | 0.00 | 65 | 1019.1 |
| 20260502225017 | 55 | 281 | 1.0 | 2.0 | 0.00 | 0.00 | 0.00 | 65 | 1019.1 |
| 20260502224529 | 56 | 299 | 1.0 | 2.0 | 0.00 | 0.00 | 0.00 | 63 | 1019.2 |
| 20260502224041 | 56 | 255 | 1.0 | 3.0 | 0.00 | 0.00 | 0.00 | 63 | 1019.2 |
| 20260502223521 | 55 | 240 | 1.0 | 3.0 | 0.00 | 0.00 | 0.00 | 64 | 1019.1 |
| 20260502223033 | 55 | 323 | 0.0 | 1.0 | 0.00 | 0.00 | 0.00 | 65 | 1019.1 |
| 20260502222545 | 55 | 279 | 1.0 | 2.0 | 0.00 | 0.00 | 0.00 | 65 | 1019.1 |
| 20260502222025 | 55 | 242 | 1.0 | 2.0 | 0.00 | 0.00 | 0.00 | 66 | 1019.1 |
| 20260502221537 | 55 | 326 | 0.0 | 1.0 | 0.00 | 0.00 | 0.00 | 66 | 1019.3 |
| 20260502221017 | 55 | 314 | 1.0 | 1.0 | 0.00 | 0.00 | 0.00 | 66 | 1019.3 |
| 20260502220529 | 55 | 298 | 1.0 | 2.0 | 0.00 | 0.00 | 0.00 | 66 | 1019.4 |
| 20260502220041 | 55 | 291 | 1.0 | 2.0 | 0.00 | 0.00 | 0.00 | 66 | 1019.3 |
| 20260502215521 | 55 | 307 | 0.0 | 1.0 | 0.00 | 0.00 | 0.00 | 65 | 1019.3 |
| 20260502215033 | 55 | 309 | 0.0 | 1.0 | 0.00 | 0.00 | 0.00 | 65 | 1019.3 |
| 20260502214545 | 55 | 292 | 0.0 | 1.0 | 0.00 | 0.00 | 0.00 | 65 | 1019.4 |
| 20260502214047 | 56 | 306 | 0.0 | 1.0 | 0.00 | 0.00 | 0.00 | 65 | 1019.3 |
| 20260502213521 | 56 | 323 | 0.0 | 1.0 | 0.00 | 0.00 | 0.00 | 64 | 1019.3 |
| 20260502213033 | 57 | 275 | 1.0 | 2.0 | 0.00 | 0.00 | 0.00 | 63 | 1019.4 |
| 20260502212545 | 57 | 308 | 1.0 | 1.0 | 0.00 | 0.00 | 0.00 | 62 | 1019.4 |
| 20260502212026 | 57 | 291 | 1.0 | 2.0 | 0.00 | 0.00 | 0.00 | 62 | 1019.5 |
| 20260502211537 | 58 | 257 | 0.0 | 2.0 | 0.00 | 0.00 | 0.00 | 61 | 1019.5 |
| 20260502211017 | 58 | 332 | 1.0 | 2.0 | 0.00 | 0.00 | 0.00 | 61 | 1019.6 |
| 20260502210529 | 58 | 280 | 1.0 | 5.0 | 0.00 | 0.00 | 0.00 | 61 | 1019.7 |
| 20260502210041 | 58 | 331 | 1.0 | 2.0 | 0.00 | 0.00 | 0.00 | 61 | 1019.6 |
| 20260502205521 | 58 | 315 | 1.0 | 2.0 | 0.00 | 0.00 | 0.00 | 61 | 1019.6 |
| 20260502205033 | 57 | 266 | 1.0 | 2.0 | 0.00 | 0.00 | 0.00 | 61 | 1019.6 |
| 20260502204545 | 56 | 273 | 1.0 | 2.0 | 0.00 | 0.00 | 0.00 | 63 | 1019.6 |
| 20260502204025 | 54 | 282 | 0.0 | 3.0 | 0.00 | 0.00 | 0.00 | 68 | 1019.6 |
| 20260502203537 | 54 | 307 | 0.0 | 1.0 | 0.00 | 0.00 | 0.00 | 70 | 1019.7 |
| 20260502203017 | 54 | 328 | 0.0 | 1.0 | 0.00 | 0.00 | 0.00 | 70 | 1019.7 |
| 20260502202529 | 54 | 304 | 0.0 | 1.0 | 0.00 | 0.00 | 0.00 | 70 | 1019.7 |
| 20260502202041 | 54 | 315 | 0.0 | 1.0 | 0.00 | 0.00 | 0.00 | 70 | 1019.6 |
| 20260502201521 | 54 | 322 | 0.0 | 1.0 | 0.00 | 0.00 | 0.00 | 69 | 1019.7 |
| 20260502201033 | 54 | 0.0 | 0.0 | 0.00 | 0.00 | 0.00 | 69 | 1019.6 | |
| 20260502200546 | 54 | 0.0 | 0.0 | 0.00 | 0.00 | 0.00 | 69 | 1019.7 | |
| 20260502200026 | 55 | 311 | 0.0 | 1.0 | 0.00 | 0.00 | 0.00 | 69 | 1019.7 |
| 20260502195537 | 55 | 0.0 | 0.0 | 0.00 | 0.00 | 0.00 | 68 | 1019.6 | |
| 20260502195017 | 55 | 0.0 | 0.0 | 0.00 | 0.00 | 0.00 | 68 | 1019.7 | |
| 20260502194529 | 55 | 0.0 | 0.0 | 0.00 | 0.00 | 0.00 | 68 | 1019.7 | |
| 20260502194042 | 55 | 0.0 | 0.0 | 0.00 | 0.00 | 0.00 | 67 | 1019.7 | |
| 20260502193521 | 56 | 0.0 | 0.0 | 0.00 | 0.00 | 0.00 | 67 | 1019.7 | |
| 20260502193034 | 56 | 0.0 | 0.0 | 0.00 | 0.00 | 0.00 | 66 | 1019.9 | |
| 20260502192545 | 56 | 0.0 | 0.0 | 0.00 | 0.00 | 0.00 | 65 | 1019.8 | |
| 20260502192026 | 57 | 0.0 | 0.0 | 0.00 | 0.00 | 0.00 | 65 | 1019.9 | |
| 20260502191537 | 57 | 0.0 | 0.0 | 0.00 | 0.00 | 0.00 | 64 | 1019.9 | |
| 20260502191018 | 58 | 0.0 | 0.0 | 0.00 | 0.00 | 0.00 | 63 | 1019.9 | |
| 20260502190529 | 58 | 318 | 0.0 | 1.0 | 0.00 | 0.00 | 0.00 | 61 | 1019.9 |
| 20260502190041 | 58 | 0.0 | 0.0 | 0.00 | 0.00 | 0.00 | 61 | 1019.9 | |
| 20260502185521 | 58 | 329 | 0.0 | 1.0 | 0.00 | 0.00 | 0.00 | 60 | 1019.8 |
| 20260502185033 | 59 | 0.0 | 0.0 | 0.00 | 0.00 | 0.00 | 59 | 1019.8 | |
| 20260502184545 | 59 | 0.0 | 0.0 | 0.00 | 0.00 | 0.00 | 58 | 1019.9 | |
| 20260502184025 | 60 | 0.0 | 0.0 | 0.00 | 0.00 | 0.00 | 58 | 1019.9 | |
| 20260502183521 | 60 | 0.0 | 0.0 | 0.00 | 0.00 | 0.00 | 56 | 1020.0 | |
| 20260502183033 | 61 | 0.0 | 0.0 | 0.00 | 0.00 | 0.00 | 55 | 1019.8 | |
| 20260502182545 | 62 | 0.0 | 0.0 | 0.00 | 0.00 | 0.00 | 54 | 1019.8 | |
| 20260502182025 | 62 | 0.0 | 0.0 | 0.00 | 0.00 | 0.00 | 52 | 1019.8 | |
| 20260502181537 | 63 | 0.0 | 0.0 | 0.00 | 0.00 | 0.00 | 52 | 1019.7 | |
| 20260502181017 | 63 | 0.0 | 0.0 | 0.00 | 0.00 | 0.00 | 52 | 1019.7 | |
| 20260502180529 | 64 | 0.0 | 0.0 | 0.00 | 0.00 | 0.00 | 51 | 1019.7 | |
| 20260502164025 | 72 | 81 | 2.0 | 6.0 | 0.00 | 0.00 | 0.00 | 37 | 1019.8 |
| 20260502163538 | 72 | 345 | 1.0 | 3.0 | 0.00 | 0.00 | 0.00 | 36 | 1020.0 |
| 20260502163035 | 72 | 271 | 1.0 | 3.0 | 0.00 | 0.00 | 0.00 | 37 | 1020.1 |
| 20260502162545 | 73 | 331 | 0.0 | 1.0 | 0.00 | 0.00 | 0.00 | 37 | 1020.0 |
| 20260502162026 | 73 | 285 | 1.0 | 2.0 | 0.00 | 0.00 | 0.00 | 36 | 1020.0 |
| 20260502161523 | 73 | 308 | 0.0 | 1.0 | 0.00 | 0.00 | 0.00 | 36 | 1020.1 |
| 20260502161033 | 73 | 313 | 1.0 | 2.0 | 0.00 | 0.00 | 0.00 | 35 | 1020.1 |
| 20260502160545 | 73 | 323 | 1.0 | 2.0 | 0.00 | 0.00 | 0.00 | 36 | 1020.2 |
| 20260502152025 | 74 | 25 | 1.0 | 3.0 | 0.00 | 0.00 | 0.00 | 34 | 1020.7 |
| 20260502151537 | 74 | 278 | 1.0 | 5.0 | 0.00 | 0.00 | 0.00 | 34 | 1020.7 |
| 20260502151017 | 74 | 294 | 1.0 | 3.0 | 0.00 | 0.00 | 0.00 | 34 | 1020.9 |
| 20260502150529 | 74 | 210 | 2.0 | 8.0 | 0.00 | 0.00 | 0.00 | 34 | 1020.9 |
| 20260502130529 | 76 | 192 | 2.0 | 6.0 | 0.00 | 0.00 | 0.00 | 33 | 1022.2 |
| 20260502123521 | 75 | 157 | 2.0 | 7.0 | 0.00 | 0.00 | 0.00 | 33 | 1022.5 |
| 20260502123033 | 75 | 152 | 3.0 | 8.0 | 0.00 | 0.00 | 0.00 | 33 | 1022.6 |
| 20260502122545 | 74 | 279 | 2.0 | 3.0 | 0.00 | 0.00 | 0.00 | 34 | 1022.7 |
| 20260502122026 | 74 | 322 | 3.0 | 7.0 | 0.00 | 0.00 | 0.00 | 34 | 1022.7 |
| 20260502121537 | 75 | 305 | 1.0 | 3.0 | 0.00 | 0.00 | 0.00 | 33 | 1022.8 |
| 20260502121019 | 74 | 223 | 2.0 | 5.0 | 0.00 | 0.00 | 0.00 | 34 | 1022.9 |
| 20260502120529 | 75 | 314 | 3.0 | 6.0 | 0.00 | 0.00 | 0.00 | 35 | 1023.0 |
| 20260502115521 | 76 | 266 | 1.0 | 3.0 | 0.00 | 0.00 | 0.00 | 34 | 1023.2 |
| 20260502115033 | 75 | 278 | 1.0 | 3.0 | 0.00 | 0.00 | 0.00 | 34 | 1023.2 |
| 20260502114545 | 75 | 118 | 3.0 | 6.0 | 0.00 | 0.00 | 0.00 | 34 | 1023.3 |
| 20260502114025 | 74 | 227 | 2.0 | 7.0 | 0.00 | 0.00 | 0.00 | 35 | 1023.3 |
| 20260502113537 | 75 | 311 | 2.0 | 6.0 | 0.00 | 0.00 | 0.00 | 35 | 1023.5 |
| 20260502113018 | 75 | 258 | 2.0 | 5.0 | 0.00 | 0.00 | 0.00 | 34 | 1023.4 |
| 20260502112529 | 75 | 290 | 2.0 | 5.0 | 0.00 | 0.00 | 0.00 | 34 | 1023.5 |
| 20260502112041 | 75 | 320 | 2.0 | 5.0 | 0.00 | 0.00 | 0.00 | 34 | 1023.6 |
| 20260502111521 | 75 | 209 | 2.0 | 5.0 | 0.00 | 0.00 | 0.00 | 34 | 1023.6 |
| 20260502111033 | 75 | 210 | 3.0 | 7.0 | 0.00 | 0.00 | 0.00 | 34 | 1023.6 |
| 20260502110545 | 74 | 201 | 3.0 | 7.0 | 0.00 | 0.00 | 0.00 | 35 | 1023.7 |
| 20260502110025 | 74 | 275 | 2.0 | 5.0 | 0.00 | 0.00 | 0.00 | 35 | 1023.8 |
| 20260502105537 | 74 | 243 | 2.0 | 5.0 | 0.00 | 0.00 | 0.00 | 36 | 1023.8 |
| 20260502105018 | 73 | 166 | 3.0 | 5.0 | 0.00 | 0.00 | 0.00 | 35 | 1023.9 |
| 20260502104530 | 74 | 157 | 3.0 | 7.0 | 0.00 | 0.00 | 0.00 | 35 | 1024.0 |
| 20260502104041 | 74 | 228 | 2.0 | 5.0 | 0.00 | 0.00 | 0.00 | 35 | 1024.0 |
| 20260502103521 | 73 | 72 | 2.0 | 5.0 | 0.00 | 0.00 | 0.00 | 36 | 1024.0 |
| 20260502103033 | 73 | 263 | 3.0 | 8.0 | 0.00 | 0.00 | 0.00 | 37 | 1024.0 |
| 20260502102545 | 73 | 281 | 2.0 | 5.0 | 0.00 | 0.00 | 0.00 | 37 | 1024.2 |
| 20260502102025 | 75 | 310 | 2.0 | 5.0 | 0.00 | 0.00 | 0.00 | 36 | 1024.3 |
| 20260502101537 | 74 | 218 | 2.0 | 6.0 | 0.00 | 0.00 | 0.00 | 36 | 1024.3 |
| 20260502101017 | 73 | 211 | 3.0 | 7.0 | 0.00 | 0.00 | 0.00 | 37 | 1024.4 |
| 20260502100529 | 72 | 321 | 2.0 | 6.0 | 0.00 | 0.00 | 0.00 | 37 | 1024.4 |
| 20260502091522 | 71 | 216 | 3.0 | 8.0 | 0.00 | 0.00 | 0.00 | 39 | 1024.7 |
| 20260502091033 | 71 | 203 | 4.0 | 8.0 | 0.00 | 0.00 | 0.00 | 39 | 1024.8 |
| 20260502090545 | 71 | 185 | 3.0 | 7.0 | 0.00 | 0.00 | 0.00 | 40 | 1024.7 |
| 20260502071522 | 65 | 274 | 2.0 | 3.0 | 0.00 | 0.00 | 0.00 | 52 | 1025.3 |
| 20260502071034 | 64 | 284 | 2.0 | 3.0 | 0.00 | 0.00 | 0.00 | 52 | 1025.2 |
| 20260502070545 | 64 | 214 | 2.0 | 5.0 | 0.00 | 0.00 | 0.00 | 52 | 1025.2 |
| 20260502070025 | 63 | 320 | 1.0 | 2.0 | 0.00 | 0.00 | 0.00 | 55 | 1025.3 |
| 20260502065537 | 62 | 293 | 1.0 | 2.0 | 0.00 | 0.00 | 0.00 | 57 | 1025.3 |
| 20260502065017 | 62 | 285 | 1.0 | 3.0 | 0.00 | 0.00 | 0.00 | 57 | 1025.3 |
| 20260502064529 | 62 | 195 | 2.0 | 6.0 | 0.00 | 0.00 | 0.00 | 57 | 1025.4 |
| 20260502064042 | 61 | 77 | 1.0 | 3.0 | 0.00 | 0.00 | 0.00 | 57 | 1025.3 |
| 20260502063540 | 60 | 258 | 1.0 | 3.0 | 0.00 | 0.00 | 0.00 | 58 | 1025.4 |
| 20260502063035 | 60 | 223 | 2.0 | 5.0 | 0.00 | 0.00 | 0.00 | 58 | 1025.3 |
| 20260502062546 | 60 | 274 | 2.0 | 5.0 | 0.00 | 0.00 | 0.00 | 58 | 1025.3 |
| 20260502062026 | 59 | 206 | 2.0 | 5.0 | 0.00 | 0.00 | 0.00 | 59 | 1025.4 |
| 20260502061538 | 59 | 185 | 2.0 | 5.0 | 0.00 | 0.00 | 0.00 | 59 | 1025.5 |
| 20260502061018 | 58 | 222 | 2.0 | 3.0 | 0.00 | 0.00 | 0.00 | 60 | 1025.3 |
| 20260502060529 | 58 | 228 | 1.0 | 3.0 | 0.00 | 0.00 | 0.00 | 60 | 1025.4 |
| 20260502060041 | 57 | 216 | 2.0 | 5.0 | 0.00 | 0.00 | 0.00 | 61 | 1025.3 |
| 20260502055522 | 58 | 209 | 2.0 | 3.0 | 0.00 | 0.00 | 0.00 | 62 | 1025.3 |
| 20260502055034 | 58 | 286 | 1.0 | 2.0 | 0.00 | 0.00 | 0.00 | 62 | 1025.3 |
| 20260502054546 | 57 | 312 | 0.0 | 2.0 | 0.00 | 0.00 | 0.00 | 65 | 1025.3 |
| 20260502054025 | 56 | 308 | 1.0 | 2.0 | 0.00 | 0.00 | 0.00 | 67 | 1025.3 |
| 20260502053537 | 55 | 276 | 1.0 | 3.0 | 0.00 | 0.00 | 0.00 | 67 | 1025.2 |
| 20260502053017 | 55 | 326 | 0.0 | 1.0 | 0.00 | 0.00 | 0.00 | 70 | 1025.3 |
| 20260502052530 | 54 | 328 | 0.0 | 1.0 | 0.00 | 0.00 | 0.00 | 73 | 1025.3 |
| 20260502052041 | 53 | 341 | 0.0 | 1.0 | 0.00 | 0.00 | 0.00 | 75 | 1025.3 |
| 20260502051522 | 51 | 345 | 0.0 | 1.0 | 0.00 | 0.00 | 0.00 | 77 | 1025.3 |
| 20260502051034 | 50 | 357 | 1.0 | 1.0 | 0.00 | 0.00 | 0.00 | 79 | 1025.3 |
| 20260502050545 | 49 | 3 | 1.0 | 1.0 | 0.00 | 0.00 | 0.00 | 79 | 1025.4 |
| 20260502050026 | 49 | 4 | 1.0 | 1.0 | 0.00 | 0.00 | 0.00 | 78 | 1025.3 |
| 20260502045538 | 48 | 0.0 | 0.0 | 0.00 | 0.00 | 0.00 | 79 | 1025.2 | |
| 20260502045018 | 47 | 0.0 | 0.0 | 0.00 | 0.00 | 0.00 | 81 | 1025.2 | |
| 20260502044530 | 45 | 0.0 | 0.0 | 0.00 | 0.00 | 0.00 | 86 | 1025.2 | |
| 20260502044042 | 44 | 0.0 | 0.0 | 0.00 | 0.00 | 0.00 | 89 | 1025.2 | |
| 20260502043521 | 42 | 0.0 | 0.0 | 0.00 | 0.00 | 0.00 | 90 | 1025.3 | |
| 20260502043033 | 41 | 0.0 | 0.0 | 0.00 | 0.00 | 0.00 | 92 | 1025.2 | |
| 20260502042546 | 39 | 0.0 | 0.0 | 0.00 | 0.00 | 0.00 | 92 | 1025.1 | |
| 20260502042026 | 39 | 0.0 | 0.0 | 0.00 | 0.00 | 0.00 | 92 | 1025.1 | |
| 20260502041538 | 38 | 0.0 | 0.0 | 0.00 | 0.00 | 0.00 | 92 | 1025.1 | |
| 20260502041018 | 38 | 0.0 | 0.0 | 0.00 | 0.00 | 0.00 | 92 | 1025.1 | |
| 20260502040529 | 37 | 0.0 | 0.0 | 0.00 | 0.00 | 0.00 | 93 | 1025.1 |